Skip Navigation Links
NOAA logo - Click to go to the NOAA homepage
NOAA's National Weather Service
Alaska Aviation Weather Unit
  NWS logo - Click to go to the NWS homepage
Left Navbar Graphic     21 AKDT = 05 GMT

   
NOAA is celebrating 200 years of science, service, and stewardship. Visit the NOAA 200th celebration Web site to learn more.
USA.gov is the U.S. Government's official Web portal to all Federal, state and local government Web resources and services.
Facebook
NWS on Facebook

Important Change Regarding the AAWU Web Presence

 

Over the last several months, the AAWU has been working to navigate its webpages to a nationally supported server. Security, as well as other needs, have necessitated the change.  In the process, we have made an effort to enhance the functionality of our website, as well as some of our products. As of June 27, 2017, aawu.arh.noaa.gov will be discontinued. The new AAWU web address is weather.gov/aawu. It is now live and will run in-parallel with the old site until it is discontinued. Please send any feedback or questions regarding the new webpages to nws.ar.aawu.webauthors@noaa.gov.  Thank you for your patience during this time of transition.
AAWU Home :: Display TAF Add Bookmark
TAF PAEN 250521Z 2506/2606  20010KT P6SM SKC
     FM251200 19005KT P6SM SKC
     FM252200 23012KT P6SM SKC
     FM260200 22016G20KT P6SM SKC=

926 
FTAK31 PANC 250521
TAFAAQ
TAF

METAR PAEN 242353Z 23009KT 10SM CLR 18/09 A3010= METAR PAEN 250053Z 21009KT 10SM CLR 17/09 A3009= METAR PAEN 250153Z 22008KT 10SM CLR 16/09 A3007= METAR PAEN 250253Z 21009KT 10SM CLR 14/09 A3006= METAR PAEN 250353Z 21011KT 10SM CLR 13/10 A3005= METAR PAEN 250453Z 21011KT 10SM CLR 13/09 A3003=
 Alaska TAF Map

NOAA's National Weather Service
Alaska Aviation Weather Unit
6930 Sand Lake Road
Anchorage, AK 99502-1845
Disclaimer
Credits
Glossary
Privacy Policy
About Us
Career Opportunities
Contact AAWU Internet Services Site last modified: April, 17th 2012